LOT7LK EPWA-EVRA

Flight info

Callsign LOT7LK
Flight time 1h 1m
Altitude 39000
Route BAMSO Z182 ASLUX Z460 XESNA M857 BULEP DCT BOKSU DCT GUNTA
Aircraft B738/M-SDE2E3FGHIRWXY/LB1

Departure

Time 2026-05-01 09:20
Airport Warsaw Chopin Airport (EPWA)

Arrival

Time 2026-05-01 10:21
Airport Riga International Airport (EVRA)
Time Latitude Longitude Altitude Speed Heading
2026-05-01 09:01 52.16998 20.97134 334 ft 0 kts 70°
2026-05-01 09:08 52.16993 20.97112 333 ft 2 kts 70°
2026-05-01 09:09 52.16988 20.97086 333 ft 2 kts 71°
2026-05-01 09:09 52.16983 20.97060 334 ft 2 kts 74°
2026-05-01 09:09 52.16978 20.97035 333 ft 2 kts 79°
2026-05-01 09:09 52.16977 20.97008 333 ft 2 kts 108°
2026-05-01 09:10 52.16985 20.96990 333 ft 1 kts 153°
2026-05-01 09:10 52.16987 20.96989 333 ft 0 kts 153°
2026-05-01 09:13 52.16980 20.96995 332 ft 5 kts 152°
2026-05-01 09:14 52.16948 20.97022 334 ft 0 kts 152°
2026-05-01 09:14 52.16947 20.97022 334 ft 0 kts 152°
2026-05-01 09:14 52.16927 20.97040 336 ft 8 kts 152°
2026-05-01 09:14 52.16856 20.97100 335 ft 16 kts 152°
2026-05-01 09:15 52.16751 20.97194 337 ft 18 kts 150°
2026-05-01 09:15 52.16645 20.97287 338 ft 17 kts 152°
2026-05-01 09:15 52.16563 20.97418 338 ft 18 kts 115°
2026-05-01 09:15 52.16508 20.97608 335 ft 18 kts 115°
2026-05-01 09:16 52.16454 20.97790 335 ft 8 kts 128°
2026-05-01 09:16 52.16404 20.97801 335 ft 8 kts 202°
2026-05-01 09:16 52.16392 20.97791 336 ft 0 kts 206°
2026-05-01 09:18 52.16319 20.97732 335 ft 10 kts 206°
2026-05-01 09:19 52.16321 20.97600 336 ft 6 kts 297°
2026-05-01 09:19 52.16326 20.97584 335 ft 9 kts 296°
2026-05-01 09:19 52.16477 20.97059 334 ft 91 kts 294°
2026-05-01 09:20 52.17135 20.94715 855 ft 154 kts 295°
2026-05-01 09:20 52.18042 20.91418 2613 ft 159 kts 297°
2026-05-01 09:21 52.19746 20.89260 4090 ft 170 kts 336°
2026-05-01 09:21 52.20922 20.88396 4385 ft 199 kts 338°
2026-05-01 09:21 52.23401 20.85453 4930 ft 245 kts 314°
2026-05-01 09:22 52.25738 20.81311 6709 ft 247 kts 318°
2026-05-01 09:22 52.28805 20.79077 8332 ft 245 kts 351°
2026-05-01 09:23 52.30491 20.78625 9205 ft 246 kts
2026-05-01 09:23 52.33552 20.80758 10817 ft 251 kts 45°
2026-05-01 09:24 52.34765 20.86637 11271 ft 313 kts 83°
2026-05-01 09:24 52.34756 20.90327 11549 ft 333 kts 86°
2026-05-01 09:24 52.34659 20.98030 12988 ft 341 kts 85°
2026-05-01 09:25 52.34620 21.05842 14615 ft 345 kts 84°
2026-05-01 09:25 52.35196 21.13563 16169 ft 341 kts 71°
2026-05-01 09:26 52.35783 21.17332 16946 ft 343 kts 71°
2026-05-01 09:26 52.36926 21.24999 18460 ft 350 kts 71°
2026-05-01 09:26 52.37477 21.28893 19126 ft 352 kts 72°
2026-05-01 09:27 52.37908 21.36974 20353 ft 372 kts 89°
2026-05-01 09:27 52.37583 21.41193 20980 ft 375 kts 90°
2026-05-01 09:27 52.37228 21.45449 21577 ft 379 kts 90°
2026-05-01 09:28 52.36870 21.49744 22166 ft 382 kts 90°
2026-05-01 09:28 52.36517 21.54077 22759 ft 385 kts 90°
2026-05-01 09:28 52.36169 21.58443 23332 ft 388 kts 90°
2026-05-01 09:28 52.35824 21.62842 23891 ft 391 kts 90°
2026-05-01 09:29 52.35133 21.71675 24845 ft 396 kts 90°
2026-05-01 09:29 52.34780 21.76161 25320 ft 398 kts 90°
2026-05-01 09:30 52.34066 21.85188 26234 ft 402 kts 90°
2026-05-01 09:30 52.33703 21.89734 26661 ft 404 kts 90°
2026-05-01 09:30 52.33104 21.98907 27513 ft 407 kts 88°
2026-05-01 09:31 52.32849 22.03523 27917 ft 409 kts 88°
2026-05-01 09:31 52.32614 22.08104 28306 ft 408 kts 84°
2026-05-01 09:31 52.34027 22.16739 29065 ft 391 kts 57°
2026-05-01 09:32 52.35561 22.20393 29436 ft 388 kts 46°
2026-05-01 09:32 52.39732 22.26021 30119 ft 391 kts 33°
2026-05-01 09:32 52.42107 22.28223 30448 ft 393 kts 27°
2026-05-01 09:33 52.44619 22.30024 30836 ft 393 kts 22°
2026-05-01 09:33 52.47235 22.31339 31262 ft 393 kts 16°
2026-05-01 09:33 52.52549 22.33203 32008 ft 392 kts 14°
2026-05-01 09:34 52.55225 22.34121 32382 ft 392 kts 14°
2026-05-01 09:34 52.57889 22.35046 32774 ft 390 kts 14°
2026-05-01 09:34 52.63187 22.36917 33526 ft 389 kts 14°
2026-05-01 09:35 52.65830 22.37860 33888 ft 388 kts 14°
2026-05-01 09:35 52.71095 22.39744 34555 ft 387 kts 14°
2026-05-01 09:35 52.73704 22.40680 34796 ft 387 kts 14°
2026-05-01 09:36 52.76349 22.41629 35015 ft 389 kts 14°
2026-05-01 09:36 52.78995 22.42611 35263 ft 389 kts 15°
2026-05-01 09:36 52.81635 22.43656 35518 ft 389 kts 15°
2026-05-01 09:36 52.84265 22.44724 35768 ft 389 kts 15°
2026-05-01 09:37 52.86897 22.45800 36094 ft 387 kts 15°
2026-05-01 09:37 52.92084 22.47916 36699 ft 385 kts 15°
2026-05-01 09:37 52.94695 22.48978 36930 ft 386 kts 15°
2026-05-01 09:38 52.99928 22.51103 37377 ft 387 kts 15°
2026-05-01 09:38 53.02543 22.52165 37618 ft 388 kts 15°
2026-05-01 09:38 53.05167 22.53232 37823 ft 388 kts 15°
2026-05-01 09:39 53.10433 22.55375 38277 ft 389 kts 15°
2026-05-01 09:39 53.13067 22.56450 38481 ft 389 kts 15°
2026-05-01 09:39 53.15668 22.57512 38670 ft 390 kts 15°
2026-05-01 09:40 53.18310 22.58592 38881 ft 390 kts 15°
2026-05-01 09:40 53.23597 22.60757 39195 ft 392 kts 15°
2026-05-01 09:41 53.28896 22.62933 39314 ft 393 kts 15°
2026-05-01 09:41 53.36942 22.66250 39327 ft 402 kts 15°
2026-05-01 09:42 53.42409 22.68509 39331 ft 405 kts 15°
2026-05-01 09:43 53.53308 22.73030 39311 ft 397 kts 15°
2026-05-01 09:43 53.58649 22.75255 39323 ft 395 kts 15°
2026-05-01 09:44 53.66658 22.78603 39323 ft 395 kts 15°
2026-05-01 09:45 53.71966 22.80830 39319 ft 395 kts 15°
2026-05-01 09:45 53.80005 22.84212 39324 ft 397 kts 15°
2026-05-01 09:46 53.85355 22.86471 39324 ft 398 kts 15°
2026-05-01 09:46 53.90759 22.88758 39324 ft 400 kts 15°
2026-05-01 09:47 53.96163 22.91051 39323 ft 401 kts 15°
2026-05-01 09:47 54.01548 22.93343 39322 ft 401 kts 15°
2026-05-01 09:48 54.06968 22.95655 39328 ft 402 kts 15°
2026-05-01 09:48 54.12392 22.97976 39327 ft 402 kts 15°
2026-05-01 09:49 54.17823 23.00306 39326 ft 401 kts 15°
2026-05-01 09:49 54.23206 23.02622 39327 ft 401 kts 15°
2026-05-01 09:50 54.28623 23.04957 39324 ft 401 kts 15°
2026-05-01 09:50 54.34056 23.07078 39319 ft 400 kts 12°
2026-05-01 09:51 54.39542 23.08810 39325 ft 400 kts 11°
2026-05-01 09:51 54.44991 23.10501 39332 ft 399 kts 11°
2026-05-01 09:52 54.50477 23.12243 39327 ft 399 kts 11°
2026-05-01 09:52 54.55898 23.13990 39329 ft 398 kts 11°
2026-05-01 09:53 54.61339 23.15757 39324 ft 398 kts 11°
2026-05-01 09:53 54.66767 23.17526 39327 ft 398 kts 11°
2026-05-01 09:54 54.72232 23.19312 39324 ft 398 kts 11°
2026-05-01 09:54 54.77670 23.21094 39322 ft 398 kts 11°
2026-05-01 09:55 54.83103 23.22879 39324 ft 399 kts 11°
2026-05-01 09:55 54.88581 23.24683 39321 ft 399 kts 11°
2026-05-01 09:56 54.94028 23.26483 39323 ft 400 kts 11°
2026-05-01 09:56 54.99496 23.28294 39316 ft 400 kts 11°
2026-05-01 09:57 55.02203 23.29192 39296 ft 387 kts 11°
2026-05-01 09:57 55.04770 23.30045 39301 ft 372 kts 11°
2026-05-01 09:57 55.07286 23.30882 39159 ft 363 kts 11°
2026-05-01 09:57 55.09762 23.31707 38581 ft 364 kts 11°
2026-05-01 09:58 55.12272 23.32544 37823 ft 368 kts 11°
2026-05-01 09:58 55.14816 23.33395 37074 ft 373 kts 11°
2026-05-01 09:58 55.17358 23.34246 36252 ft 379 kts 11°
2026-05-01 09:58 55.19980 23.35124 35454 ft 385 kts 11°
2026-05-01 09:59 55.22621 23.36010 34741 ft 388 kts 11°
2026-05-01 09:59 55.25279 23.36903 34060 ft 388 kts 12°
2026-05-01 09:59 55.27946 23.37800 33298 ft 389 kts 12°
2026-05-01 09:59 55.30582 23.38687 32486 ft 392 kts 12°
2026-05-01 10:00 55.33271 23.39594 31641 ft 395 kts 12°
2026-05-01 10:00 55.35976 23.40508 30760 ft 398 kts 12°
2026-05-01 10:00 55.38712 23.41434 29751 ft 402 kts 12°
2026-05-01 10:00 55.41471 23.42368 28635 ft 405 kts 12°
2026-05-01 10:01 55.44235 23.43305 28071 ft 397 kts 12°
2026-05-01 10:01 55.46934 23.44221 27504 ft 390 kts 12°
2026-05-01 10:01 55.49549 23.45109 26943 ft 385 kts 12°
2026-05-01 10:01 55.52157 23.45997 26392 ft 379 kts 12°
2026-05-01 10:02 55.54731 23.46874 25835 ft 374 kts 12°
2026-05-01 10:02 55.57275 23.47743 25291 ft 369 kts 12°
2026-05-01 10:02 55.59780 23.48599 24758 ft 365 kts 12°
2026-05-01 10:02 55.62265 23.49450 24225 ft 361 kts 12°
2026-05-01 10:03 55.64727 23.50294 23666 ft 358 kts 12°
2026-05-01 10:03 55.67135 23.51121 23121 ft 353 kts 12°
2026-05-01 10:03 55.69535 23.51945 22585 ft 348 kts 11°
2026-05-01 10:03 55.71896 23.52758 22100 ft 344 kts 11°
2026-05-01 10:04 55.74238 23.53565 21585 ft 340 kts 11°
2026-05-01 10:04 55.76550 23.54363 21082 ft 336 kts 11°
2026-05-01 10:04 55.78831 23.55151 20589 ft 333 kts 11°
2026-05-01 10:04 55.81094 23.55933 20108 ft 330 kts 11°
2026-05-01 10:05 55.83335 23.56709 19606 ft 327 kts 11°
2026-05-01 10:05 55.85538 23.57473 19127 ft 325 kts 11°
2026-05-01 10:05 55.87751 23.58241 18638 ft 323 kts 11°
2026-05-01 10:05 55.89953 23.59006 18109 ft 321 kts 11°
2026-05-01 10:06 55.92134 23.59764 17626 ft 318 kts 11°
2026-05-01 10:06 55.94319 23.60525 17144 ft 318 kts 11°
2026-05-01 10:06 55.96495 23.61283 16656 ft 319 kts 11°
2026-05-01 10:06 55.98680 23.62046 16163 ft 328 kts 11°
2026-05-01 10:07 56.00932 23.62833 15652 ft 330 kts 11°
2026-05-01 10:07 56.03180 23.63619 15122 ft 328 kts 11°
2026-05-01 10:07 56.05411 23.64400 14649 ft 324 kts 11°
2026-05-01 10:07 56.07616 23.65173 14159 ft 321 kts 11°
2026-05-01 10:08 56.11245 23.66448 13286 ft 316 kts 11°
2026-05-01 10:08 56.13400 23.67206 12815 ft 313 kts 11°
2026-05-01 10:08 56.16215 23.68197 12167 ft 310 kts 11°
2026-05-01 10:09 56.18330 23.68943 11674 ft 308 kts 11°
2026-05-01 10:09 56.19723 23.69435 11362 ft 307 kts 11°
2026-05-01 10:09 56.21807 23.70171 11093 ft 299 kts 11°
2026-05-01 10:09 56.23815 23.70882 10951 ft 288 kts 11°
2026-05-01 10:10 56.25752 23.71568 10815 ft 278 kts 11°
2026-05-01 10:10 56.27619 23.72229 10691 ft 269 kts 11°
2026-05-01 10:10 56.31144 23.73481 10470 ft 250 kts 10°
2026-05-01 10:11 56.32828 23.74079 10366 ft 242 kts 10°
2026-05-01 10:11 56.34466 23.74661 10200 ft 237 kts 10°
2026-05-01 10:11 56.36085 23.75238 9911 ft 236 kts 10°
2026-05-01 10:11 56.37693 23.75854 9598 ft 238 kts 13°
2026-05-01 10:12 56.39297 23.76645 9260 ft 245 kts 14°
2026-05-01 10:12 56.40955 23.77503 8889 ft 249 kts 14°
2026-05-01 10:12 56.44322 23.79241 8153 ft 253 kts 14°
2026-05-01 10:13 56.46025 23.80116 7787 ft 255 kts 14°
2026-05-01 10:13 56.47741 23.80995 7403 ft 257 kts 14°
2026-05-01 10:13 56.49466 23.81874 7043 ft 258 kts 14°
2026-05-01 10:14 56.52959 23.83657 6281 ft 262 kts 14°
2026-05-01 10:14 56.54672 23.84554 6067 ft 258 kts 14°
2026-05-01 10:14 56.56371 23.85460 5895 ft 252 kts 14°
2026-05-01 10:14 56.58062 23.86355 5568 ft 253 kts 14°
2026-05-01 10:15 56.59749 23.87248 5236 ft 253 kts 14°
2026-05-01 10:15 56.61436 23.88146 4924 ft 252 kts 14°
2026-05-01 10:15 56.63099 23.89033 4548 ft 249 kts 14°
2026-05-01 10:15 56.64771 23.89898 4078 ft 249 kts 14°
2026-05-01 10:16 56.66436 23.90798 3683 ft 247 kts 14°
2026-05-01 10:16 56.68083 23.91679 3295 ft 245 kts 13°
2026-05-01 10:16 56.71310 23.93325 2668 ft 232 kts 15°
2026-05-01 10:17 56.72858 23.94055 2565 ft 230 kts
2026-05-01 10:17 56.75879 23.94528 2613 ft 202 kts 354°
2026-05-01 10:17 56.77288 23.94542 2518 ft 199 kts
2026-05-01 10:18 56.79970 23.95067 2196 ft 195 kts
2026-05-01 10:18 56.81318 23.95301 1920 ft 190 kts
2026-05-01 10:18 56.82613 23.95519 1663 ft 183 kts
2026-05-01 10:19 56.83834 23.95706 1455 ft 167 kts
2026-05-01 10:19 56.84955 23.95895 1234 ft 153 kts
2026-05-01 10:19 56.85964 23.96063 1006 ft 144 kts
2026-05-01 10:20 56.87937 23.96388 634 ft 144 kts
2026-05-01 10:20 56.88946 23.96556 410 ft 147 kts
2026-05-01 10:20 56.89933 23.96722 237 ft 140 kts
2026-05-01 10:20 56.90878 23.96872 49 ft 129 kts
2026-05-01 10:21 56.91641 23.96994 44 ft 81 kts
2026-05-01 10:21 56.92248 23.97102 43 ft 35 kts 10°
2026-05-01 10:21 56.92467 23.97259 42 ft 33 kts 33°
2026-05-01 10:22 56.92592 23.97559 40 ft 3 kts 168°
2026-05-01 10:22 56.92462 23.97523 42 ft 13 kts 186°
2026-05-01 10:23 56.92375 23.97578 42 ft 15 kts 106°
2026-05-01 10:23 56.92307 23.97679 42 ft 7 kts 190°
2026-05-01 10:23 56.92288 23.97677 40 ft 0 kts 184°